Weather History for McAlester, OK

Change the Weather History Date:

Thursday, January 9, 2014

  Actual Average Record
Temperature  
Mean Temperature 36 °F -  
Max Temperature 39 °F 44 °F 80 °F (1957)
Min Temperature 33 °F 24 °F -2 °F (1970)
Degree Days  
Heating Degree Days 29    
Moisture  
Dew Point 34 °F    
Average Humidity 94    
Maximum Humidity 100    
Minimum Humidity 89    
Precipitation  
Precipitation 0.01 in - - ()
Sea Level Pressure  
Sea Level Pressure 30.18 in    
Wind  
Wind Speed 2 mph (East)    
Max Wind Speed 6 mph    
Max Gust Speed -    
Visibility 6 miles    
Events Rain    
Averages and records for this station are not official NWS values.
T = Trace of Precipitation, MM = Missing Value Source: NWS Daily Summary

Daily Weather History Graph

Daily Weather History Graph

Search for Another Location

Airport:

Trip Planner

Search our weather history database for the weather conditions in past years. The results will help you decide how hot, cold, wet, or windy it might be!

Date:

Astronomy

Jan. 09, 2014 Rise Set
Actual Time 7:31 AM CST 5:29 PM CST
Civil Twilight 7:03 AM CST 5:57 PM CST
Nautical Twilight 6:32 AM CST 6:28 PM CST
Astronomical Twilight 6:01 AM CST 6:59 PM CST
Moon 12:52 PM CST (1/9) 1:45 AM CST (1/9)
Length of Visible Light 10h 53m
Length of Day
9h 58m
Waxing Gibbous, 66% of the Moon is Illuminated
Jan 9
Waxing Gibbous
Jan 15
Full
Jan 23
Last Quarter
Jan 30
New
Feb 6
First Quarter

Hourly Weather History & Observations

Time (CST) Temp. Windchill Dew Point Humidity Pressure Visibility Wind Dir Wind Speed Gust Speed Precip Events Conditions
12:53 AM 34.0 °F 31.0 °F 32.0 °F 92% 30.24 in 5.0 mi East 3.5 mph - 0.01 in Rain Light Rain
1:53 AM 34.0 °F 31.0 °F 32.0 °F 92% 30.23 in 9.0 mi Variable 3.5 mph - 0.00 in   Overcast
2:53 AM 34.0 °F 31.0 °F 33.1 °F 96% 30.23 in 8.0 mi ENE 3.5 mph - 0.00 in   Overcast
3:53 AM 34.0 °F 31.0 °F 32.0 °F 92% 30.22 in 6.0 mi NE 3.5 mph - N/A   Overcast
4:53 AM 34.0 °F 31.0 °F 32.0 °F 92% 30.21 in 5.0 mi Variable 3.5 mph - N/A   Overcast
5:09 AM 33.8 °F - 32.0 °F 93% 30.20 in 5.0 mi Calm Calm - N/A   Overcast
5:53 AM 34.0 °F - 32.0 °F 92% 30.23 in 4.0 mi Calm Calm - N/A   Overcast
6:48 AM 33.8 °F - 32.0 °F 93% 30.21 in 4.0 mi Calm Calm - 0.00 in   Overcast
6:53 AM 34.0 °F 31.0 °F 32.0 °F 92% 30.22 in 4.0 mi East 3.5 mph - 0.00 in   Overcast
7:53 AM 34.0 °F - 33.1 °F 96% 30.24 in 3.0 mi Calm Calm - N/A   Overcast
8:02 AM 33.8 °F - 33.8 °F 100% 30.22 in 2.5 mi Calm Calm - N/A   Overcast
8:27 AM 33.8 °F - 33.8 °F 100% 30.23 in 3.0 mi Calm Calm - N/A   Overcast
8:51 AM 33.8 °F 30.8 °F 33.8 °F 100% 30.24 in 2.5 mi East 3.5 mph - N/A   Overcast
8:53 AM 34.0 °F - 33.1 °F 96% 30.26 in 2.5 mi Calm Calm - N/A   Overcast
9:01 AM 33.8 °F - 33.8 °F 100% 30.24 in 3.0 mi Calm Calm - N/A   Overcast
9:53 AM 34.0 °F 31.0 °F 33.1 °F 96% 30.26 in 2.5 mi East 3.5 mph - N/A   Overcast
10:41 AM 35.6 °F - 33.8 °F 93% 30.24 in 4.0 mi Calm Calm - N/A   Overcast
10:53 AM 36.0 °F 32.1 °F 34.0 °F 93% 30.25 in 4.0 mi East 4.6 mph - N/A   Overcast
11:53 AM 36.0 °F - 35.1 °F 97% 30.22 in 2.5 mi Calm Calm - N/A   Overcast
12:53 PM 36.0 °F 32.1 °F 35.1 °F 97% 30.18 in 2.5 mi SE 4.6 mph - N/A   Overcast
1:07 PM 37.4 °F - 35.6 °F 93% 30.16 in 3.0 mi Calm Calm - N/A   Overcast
1:53 PM 37.9 °F 34.4 °F 36.0 °F 93% 30.15 in 9.0 mi SSE 4.6 mph - N/A   Overcast
2:53 PM 37.9 °F 35.5 °F 36.0 °F 93% 30.13 in 10.0 mi Variable 3.5 mph - N/A   Overcast
3:53 PM 39.0 °F 35.7 °F 36.0 °F 89% 30.12 in 9.0 mi East 4.6 mph - N/A   Overcast
5:53 PM 39.0 °F - 37.0 °F 93% 30.11 in 10.0 mi Calm Calm - N/A   Overcast
6:53 PM 39.0 °F 36.8 °F 37.0 °F 93% 30.11 in 10.0 mi SE 3.5 mph - N/A   Overcast
7:53 PM 39.0 °F - 37.0 °F 93% 30.11 in 10.0 mi Calm Calm - N/A   Overcast
8:53 PM 39.0 °F 34.8 °F 37.0 °F 93% 30.10 in 10.0 mi SE 5.8 mph - N/A   Overcast
9:53 PM 39.0 °F 35.7 °F 37.0 °F 93% 30.10 in 10.0 mi Variable 4.6 mph - N/A   Overcast
10:33 PM 39.2 °F 37.0 °F 37.4 °F 93% 30.06 in 10.0 mi Variable 3.5 mph - N/A   Overcast
10:53 PM 39.0 °F - 37.0 °F 93% 30.07 in 9.0 mi Calm Calm - N/A   Overcast
11:53 PM 39.0 °F - 37.9 °F 96% 30.04 in 8.0 mi Calm Calm - N/A   Overcast